Time,TemperatureF,DewpointF,PressureIn,WindDirection,WindDirectionDegrees,WindSpeedMPH,WindSpeedGustMPH,Humidity,HourlyPrecipIn,Conditions,Clouds,dailyrainin,SoftwareType,DateUTC
2013-03-22 00:04:00,33.8,30.1,29.79,East,90,2.0,-999.0,86,0.00,,,0.00,WeatherSnoop3.0,2013-03-22 05:04:00,
2013-03-22 00:09:00,33.8,30.1,29.79,NE,41,3.0,-999.0,86,0.00,,,0.00,WeatherSnoop3.0,2013-03-22 05:09:00,
2013-03-22 00:14:00,33.8,30.1,29.79,ENE,77,2.0,-999.0,86,0.00,,,0.00,WeatherSnoop3.0,2013-03-22 05:14:00,
2013-03-22 00:19:00,33.8,30.1,29.79,ENE,75,1.0,-999.0,86,0.00,,,0.00,WeatherSnoop3.0,2013-03-22 05:19:00,
2013-03-22 00:24:00,33.9,30.2,29.79,East,80,2.0,-999.0,86,0.00,,,0.00,WeatherSnoop3.0,2013-03-22 05:24:00,
2013-03-22 00:29:00,33.9,30.2,29.80,East,85,2.0,-999.0,86,0.00,,,0.00,WeatherSnoop3.0,2013-03-22 05:29:00,
2013-03-22 00:34:00,33.9,30.2,29.79,ENE,77,2.0,-999.0,86,0.00,,,0.00,WeatherSnoop3.0,2013-03-22 05:34:00,
2013-03-22 00:39:00,33.8,30.1,29.80,ENE,77,2.0,-999.0,86,0.00,,,0.00,WeatherSnoop3.0,2013-03-22 05:39:00,
2013-03-22 00:44:00,33.9,30.4,29.80,ENE,65,1.0,-999.0,87,0.00,,,0.00,WeatherSnoop3.0,2013-03-22 05:44:00,
2013-03-22 00:49:00,33.9,30.2,29.80,ENE,72,2.0,-999.0,86,0.00,,,0.00,WeatherSnoop3.0,2013-03-22 05:49:00,
2013-03-22 00:54:00,33.9,30.4,29.80,NE,44,5.0,-999.0,87,0.00,,,0.00,WeatherSnoop3.0,2013-03-22 05:54:00,
2013-03-22 00:59:00,33.9,30.4,29.80,ENE,57,1.0,-999.0,87,0.00,,,0.00,WeatherSnoop3.0,2013-03-22 05:59:00,
2013-03-22 01:04:00,34.0,30.3,29.81,East,101,2.0,-999.0,86,0.00,,,0.00,WeatherSnoop3.0,2013-03-22 06:04:00,
2013-03-22 01:09:00,34.0,30.5,29.81,East,88,2.0,-999.0,87,0.00,,,0.00,WeatherSnoop3.0,2013-03-22 06:09:00,
2013-03-22 01:14:00,34.0,30.5,29.82,East,89,1.0,-999.0,87,0.00,,,0.00,WeatherSnoop3.0,2013-03-22 06:14:00,
2013-03-22 01:19:00,34.0,30.3,29.82,NE,41,2.0,-999.0,86,0.00,,,0.00,WeatherSnoop3.0,2013-03-22 06:19:00,
2013-03-22 01:24:00,34.1,30.4,29.83,NNE,32,2.0,-999.0,86,0.00,,,0.00,WeatherSnoop3.0,2013-03-22 06:24:00,
2013-03-22 01:29:00,34.1,30.4,29.83,ENE,61,1.0,-999.0,86,0.00,,,0.00,WeatherSnoop3.0,2013-03-22 06:29:00,
2013-03-22 01:34:00,34.0,30.5,29.84,North,1,3.0,-999.0,87,0.00,,,0.00,WeatherSnoop3.0,2013-03-22 06:34:00,
2013-03-22 01:39:00,34.0,30.3,29.84,NNE,28,1.0,-999.0,86,0.00,,,0.00,WeatherSnoop3.0,2013-03-22 06:39:00,
2013-03-22 01:44:00,34.1,30.4,29.84,NNE,25,3.0,-999.0,86,0.00,,,0.00,WeatherSnoop3.0,2013-03-22 06:44:00,
2013-03-22 01:49:00,34.1,30.4,29.85,NNE,20,2.0,-999.0,86,0.00,,,0.00,WeatherSnoop3.0,2013-03-22 06:49:00,
2013-03-22 01:54:00,34.1,30.4,29.85,North,4,1.0,-999.0,86,0.00,,,0.00,WeatherSnoop3.0,2013-03-22 06:54:00,
2013-03-22 01:59:00,34.1,30.6,29.86,NNE,32,2.0,-999.0,87,0.00,,,0.00,WeatherSnoop3.0,2013-03-22 06:59:00,
2013-03-22 02:04:00,34.1,30.6,29.86,North,8,3.0,-999.0,87,0.00,,,0.00,WeatherSnoop3.0,2013-03-22 07:04:00,
2013-03-22 02:09:00,34.0,30.5,29.85,NE,39,4.0,-999.0,87,0.00,,,0.00,WeatherSnoop3.0,2013-03-22 07:09:00,
2013-03-22 02:14:00,33.9,30.4,29.85,NNE,13,7.0,-999.0,87,0.00,,,0.00,WeatherSnoop3.0,2013-03-22 07:14:00,
2013-03-22 02:19:00,33.8,30.3,29.84,NE,37,4.0,-999.0,87,0.00,,,0.00,WeatherSnoop3.0,2013-03-22 07:19:00,
2013-03-22 02:24:00,33.8,30.3,29.84,NNE,30,5.0,-999.0,87,0.00,,,0.00,WeatherSnoop3.0,2013-03-22 07:24:00,
2013-03-22 02:29:00,33.8,30.3,29.84,NNE,26,6.0,-999.0,87,0.00,,,0.00,WeatherSnoop3.0,2013-03-22 07:29:00,
2013-03-22 02:34:00,33.8,30.3,29.84,NE,50,7.0,-999.0,87,0.00,,,0.00,WeatherSnoop3.0,2013-03-22 07:34:00,
2013-03-22 02:39:00,33.7,30.3,29.84,NNE,32,10.0,-999.0,87,0.00,,,0.00,WeatherSnoop3.0,2013-03-22 07:39:00,
2013-03-22 02:44:00,33.7,30.3,29.84,NNE,17,6.0,-999.0,87,0.00,,,0.00,WeatherSnoop3.0,2013-03-22 07:44:00,
2013-03-22 02:49:00,33.7,30.3,29.84,NE,52,6.0,-999.0,87,0.00,,,0.00,WeatherSnoop3.0,2013-03-22 07:49:00,
2013-03-22 02:54:00,33.6,30.2,29.84,NE,44,6.0,-999.0,87,0.00,,,0.00,WeatherSnoop3.0,2013-03-22 07:54:00,
2013-03-22 02:59:00,33.6,30.4,29.83,NNE,27,7.0,-999.0,88,0.00,,,0.00,WeatherSnoop3.0,2013-03-22 07:59:00,
2013-03-22 03:04:00,33.6,30.4,29.84,North,1,9.0,-999.0,88,0.00,,,0.00,WeatherSnoop3.0,2013-03-22 08:04:00,
2013-03-22 03:09:00,33.6,30.4,29.83,NNE,20,4.0,-999.0,88,0.00,,,0.00,WeatherSnoop3.0,2013-03-22 08:09:00,
2013-03-22 03:14:00,33.6,30.4,29.84,NE,52,5.0,-999.0,88,0.00,,,0.00,WeatherSnoop3.0,2013-03-22 08:14:00,
2013-03-22 03:19:00,33.6,30.4,29.84,NNE,23,8.0,-999.0,88,0.00,,,0.00,WeatherSnoop3.0,2013-03-22 08:19:00,
2013-03-22 03:24:00,33.6,30.4,29.83,North,6,5.0,-999.0,88,0.00,,,0.00,WeatherSnoop3.0,2013-03-22 08:24:00,
2013-03-22 03:29:00,33.6,30.4,29.83,NE,44,7.0,-999.0,88,0.00,,,0.00,WeatherSnoop3.0,2013-03-22 08:29:00,
2013-03-22 03:34:00,33.5,30.3,29.82,NE,39,3.0,-999.0,88,0.00,,,0.00,WeatherSnoop3.0,2013-03-22 08:34:00,
2013-03-22 03:39:00,33.5,30.3,29.82,NE,46,4.0,-999.0,88,0.00,,,0.00,WeatherSnoop3.0,2013-03-22 08:39:00,
2013-03-22 03:44:00,33.4,30.2,29.82,NE,49,8.0,-999.0,88,0.00,,,0.00,WeatherSnoop3.0,2013-03-22 08:44:00,
2013-03-22 03:49:00,33.4,30.2,29.82,NNE,22,7.0,-999.0,88,0.00,,,0.00,WeatherSnoop3.0,2013-03-22 08:49:00,
2013-03-22 03:54:00,33.4,30.2,29.82,NNE,32,5.0,-999.0,88,0.00,,,0.00,WeatherSnoop3.0,2013-03-22 08:54:00,
2013-03-22 03:59:00,33.4,30.2,29.82,NE,43,4.0,-999.0,88,0.00,,,0.00,WeatherSnoop3.0,2013-03-22 08:59:00,
2013-03-22 04:04:00,33.4,30.2,29.82,NNE,33,2.0,-999.0,88,0.00,,,0.00,WeatherSnoop3.0,2013-03-22 09:04:00,
2013-03-22 04:09:00,33.5,30.3,29.83,NNE,18,5.0,-999.0,88,0.00,,,0.00,WeatherSnoop3.0,2013-03-22 09:09:00,
2013-03-22 04:14:00,33.5,30.3,29.83,NE,43,9.0,-999.0,88,0.00,,,0.00,WeatherSnoop3.0,2013-03-22 09:14:00,
2013-03-22 04:19:00,33.5,30.3,29.83,NE,48,8.0,-999.0,88,0.00,,,0.00,WeatherSnoop3.0,2013-03-22 09:19:00,
2013-03-22 04:24:00,33.5,30.3,29.84,North,349,3.0,-999.0,88,0.00,,,0.00,WeatherSnoop3.0,2013-03-22 09:24:00,
2013-03-22 04:29:00,33.5,30.3,29.83,NNE,16,7.0,-999.0,88,0.00,,,0.00,WeatherSnoop3.0,2013-03-22 09:29:00,
2013-03-22 04:34:00,33.5,30.3,29.83,NNW,338,4.0,-999.0,88,0.00,,,0.00,WeatherSnoop3.0,2013-03-22 09:34:00,
2013-03-22 04:39:00,33.5,30.3,29.84,NE,53,4.0,-999.0,88,0.00,,,0.00,WeatherSnoop3.0,2013-03-22 09:39:00,
2013-03-22 04:44:00,33.4,30.2,29.83,NNE,25,10.0,-999.0,88,0.00,,,0.00,WeatherSnoop3.0,2013-03-22 09:44:00,
2013-03-22 04:49:00,33.3,30.4,29.83,NNE,25,4.0,-999.0,89,0.00,,,0.00,WeatherSnoop3.0,2013-03-22 09:49:00,
2013-03-22 04:54:00,33.3,30.4,29.83,NE,55,4.0,-999.0,89,0.00,,,0.00,WeatherSnoop3.0,2013-03-22 09:54:00,
2013-03-22 04:59:00,33.1,30.2,29.83,NNE,25,4.0,-999.0,89,0.00,,,0.00,WeatherSnoop3.0,2013-03-22 09:59:00,
2013-03-22 05:04:00,32.9,30.3,29.83,NE,36,4.0,-999.0,90,0.00,,,0.00,WeatherSnoop3.0,2013-03-22 10:04:00,
2013-03-22 05:09:00,32.7,30.4,29.83,ENE,59,4.0,-999.0,91,0.00,,,0.00,WeatherSnoop3.0,2013-03-22 10:09:00,
2013-03-22 05:14:00,32.7,30.4,29.83,NNE,18,5.0,-999.0,91,0.00,,,0.00,WeatherSnoop3.0,2013-03-22 10:14:00,
2013-03-22 05:19:00,32.7,30.4,29.83,NE,51,3.0,-999.0,91,0.00,,,0.00,WeatherSnoop3.0,2013-03-22 10:19:00,
2013-03-22 05:24:00,32.6,30.3,29.83,NE,54,5.0,-999.0,91,0.00,,,0.00,WeatherSnoop3.0,2013-03-22 10:24:00,
2013-03-22 05:29:00,32.5,30.2,29.84,NNE,16,2.0,-999.0,91,0.00,,,0.00,WeatherSnoop3.0,2013-03-22 10:29:00,
2013-03-22 05:34:00,32.5,30.4,29.84,NE,48,3.0,-999.0,92,0.00,,,0.00,WeatherSnoop3.0,2013-03-22 10:34:00,
2013-03-22 05:39:00,32.5,30.4,29.85,East,81,3.0,-999.0,92,0.00,,,0.00,WeatherSnoop3.0,2013-03-22 10:39:00,
2013-03-22 05:44:00,32.5,30.4,29.85,ENE,59,3.0,-999.0,92,0.00,,,0.00,WeatherSnoop3.0,2013-03-22 10:44:00,
2013-03-22 05:49:00,32.5,30.4,29.84,ENE,68,2.0,-999.0,92,0.00,,,0.00,WeatherSnoop3.0,2013-03-22 10:49:00,
2013-03-22 05:54:00,32.3,30.2,29.83,ENE,61,2.0,-999.0,92,0.00,,,0.00,WeatherSnoop3.0,2013-03-22 10:54:00,
2013-03-22 05:59:00,32.2,30.1,29.84,ENE,57,3.0,-999.0,92,0.00,,,0.00,WeatherSnoop3.0,2013-03-22 10:59:00,
2013-03-22 06:04:00,32.1,30.0,29.84,ENE,68,4.0,-999.0,92,0.00,,,0.00,WeatherSnoop3.0,2013-03-22 11:04:00,
2013-03-22 06:09:00,32.0,29.9,29.84,NE,46,3.0,-999.0,92,0.00,,,0.00,WeatherSnoop3.0,2013-03-22 11:09:00,
2013-03-22 06:14:00,31.9,30.1,29.84,ENE,61,6.0,-999.0,93,0.00,,,0.00,WeatherSnoop3.0,2013-03-22 11:14:00,
2013-03-22 06:19:00,31.8,30.0,29.84,ENE,59,6.0,-999.0,93,0.00,,,0.00,WeatherSnoop3.0,2013-03-22 11:19:00,
2013-03-22 06:24:00,31.6,29.8,29.84,ENE,60,3.0,-999.0,93,0.00,,,0.00,WeatherSnoop3.0,2013-03-22 11:24:00,
2013-03-22 06:29:00,31.6,29.8,29.85,NE,50,7.0,-999.0,93,0.00,,,0.00,WeatherSnoop3.0,2013-03-22 11:29:00,
2013-03-22 06:34:00,31.6,29.8,29.84,ENE,57,5.0,-999.0,93,0.00,,,0.00,WeatherSnoop3.0,2013-03-22 11:34:00,
2013-03-22 06:39:00,31.4,29.6,29.84,ENE,70,4.0,-999.0,93,0.00,,,0.00,WeatherSnoop3.0,2013-03-22 11:39:00,
2013-03-22 06:44:00,31.4,29.6,29.84,ENE,61,3.0,-999.0,93,0.00,,,0.00,WeatherSnoop3.0,2013-03-22 11:44:00,
2013-03-22 06:49:00,31.3,29.5,29.84,NE,54,3.0,-999.0,93,0.00,,,0.00,WeatherSnoop3.0,2013-03-22 11:49:00,
2013-03-22 06:54:00,31.2,29.4,29.85,NNE,22,6.0,-999.0,93,0.00,,,0.00,WeatherSnoop3.0,2013-03-22 11:54:00,
2013-03-22 06:59:00,31.1,29.6,29.85,NNE,15,7.0,-999.0,94,0.00,,,0.00,WeatherSnoop3.0,2013-03-22 11:59:00,
2013-03-22 07:04:00,31.0,29.5,29.85,NNE,13,3.0,-999.0,94,0.00,,,0.00,WeatherSnoop3.0,2013-03-22 12:04:00,
2013-03-22 07:09:00,30.9,29.4,29.85,NNE,16,3.0,-999.0,94,0.00,,,0.00,WeatherSnoop3.0,2013-03-22 12:09:00,
2013-03-22 07:14:00,30.9,29.4,29.86,NNE,28,4.0,-999.0,94,0.00,,,0.00,WeatherSnoop3.0,2013-03-22 12:14:00,
2013-03-22 07:19:00,30.9,29.4,29.87,NE,43,2.0,-999.0,94,0.00,,,0.00,WeatherSnoop3.0,2013-03-22 12:19:00,
2013-03-22 07:24:00,30.8,29.3,29.88,NNE,27,4.0,-999.0,94,0.00,,,0.00,WeatherSnoop3.0,2013-03-22 12:24:00,
2013-03-22 07:29:00,30.8,29.3,29.87,ENE,63,3.0,-999.0,94,0.00,,,0.00,WeatherSnoop3.0,2013-03-22 12:29:00,
2013-03-22 07:34:00,30.7,28.9,29.88,NNE,28,3.0,-999.0,93,0.00,,,0.00,WeatherSnoop3.0,2013-03-22 12:34:00,
2013-03-22 07:39:00,30.7,29.2,29.87,NNE,32,2.0,-999.0,94,0.00,,,0.00,WeatherSnoop3.0,2013-03-22 12:39:00,
2013-03-22 07:44:00,30.6,29.1,29.88,NNE,28,3.0,-999.0,94,0.00,,,0.00,WeatherSnoop3.0,2013-03-22 12:44:00,
2013-03-22 07:49:00,30.6,29.1,29.88,NNE,33,3.0,-999.0,94,0.00,,,0.00,WeatherSnoop3.0,2013-03-22 12:49:00,
2013-03-22 07:54:00,30.6,29.1,29.88,North,6,2.0,-999.0,94,0.00,,,0.00,WeatherSnoop3.0,2013-03-22 12:54:00,
2013-03-22 07:59:00,30.7,29.2,29.88,North,11,2.0,-999.0,94,0.00,,,0.00,WeatherSnoop3.0,2013-03-22 12:59:00,
2013-03-22 08:04:00,30.6,29.1,29.87,NE,50,1.0,-999.0,94,0.00,,,0.00,WeatherSnoop3.0,2013-03-22 13:04:00,
2013-03-22 08:09:00,30.5,29.0,29.87,NE,37,7.0,-999.0,94,0.00,,,0.00,WeatherSnoop3.0,2013-03-22 13:09:00,
2013-03-22 08:14:00,30.5,29.0,29.87,NNE,23,2.0,-999.0,94,0.00,,,0.00,WeatherSnoop3.0,2013-03-22 13:14:00,
2013-03-22 08:19:00,30.6,29.3,29.87,NNE,23,3.0,-999.0,95,0.00,,,0.00,WeatherSnoop3.0,2013-03-22 13:19:00,
2013-03-22 08:24:00,30.6,29.3,29.87,NNE,19,2.0,-999.0,95,0.00,,,0.00,WeatherSnoop3.0,2013-03-22 13:24:00,
2013-03-22 08:29:00,30.7,29.4,29.87,ENE,60,2.0,-999.0,95,0.00,,,0.00,WeatherSnoop3.0,2013-03-22 13:29:00,
2013-03-22 08:35:00,30.8,29.5,29.87,East,88,1.0,-999.0,95,0.00,,,0.00,WeatherSnoop3.0,2013-03-22 13:35:00,
2013-03-22 08:40:00,30.8,29.5,29.87,NE,43,2.0,-999.0,95,0.00,,,0.00,WeatherSnoop3.0,2013-03-22 13:40:00,
2013-03-22 08:45:00,30.8,29.5,29.87,NNE,20,5.0,-999.0,95,0.00,,,0.00,WeatherSnoop3.0,2013-03-22 13:45:00,
2013-03-22 08:50:00,30.9,29.6,29.87,NE,39,3.0,-999.0,95,0.00,,,0.00,WeatherSnoop3.0,2013-03-22 13:50:00,
2013-03-22 08:55:00,30.9,29.6,29.88,NNE,32,2.0,-999.0,95,0.00,,,0.00,WeatherSnoop3.0,2013-03-22 13:55:00,
2013-03-22 09:00:00,31.0,29.7,29.87,NNE,32,4.0,-999.0,95,0.00,,,0.00,WeatherSnoop3.0,2013-03-22 14:00:00,
2013-03-22 09:05:00,31.0,29.7,29.87,NNE,32,2.0,-999.0,95,0.00,,,0.00,WeatherSnoop3.0,2013-03-22 14:05:00,
2013-03-22 09:10:00,31.0,29.5,29.88,NNE,16,3.0,-999.0,94,0.00,,,0.00,WeatherSnoop3.0,2013-03-22 14:10:00,
2013-03-22 09:15:00,31.0,29.5,29.88,NNE,26,2.0,-999.0,94,0.00,,,0.00,WeatherSnoop3.0,2013-03-22 14:15:00,
2013-03-22 09:20:00,31.1,29.8,29.89,NNE,19,3.0,-999.0,95,0.00,,,0.00,WeatherSnoop3.0,2013-03-22 14:20:00,
2013-03-22 09:25:00,31.1,29.6,29.89,NE,43,3.0,-999.0,94,0.00,,,0.00,WeatherSnoop3.0,2013-03-22 14:25:00,
2013-03-22 09:30:00,31.0,29.5,29.89,NNE,18,3.0,-999.0,94,0.00,,,0.00,WeatherSnoop3.0,2013-03-22 14:30:00,
2013-03-22 09:35:00,31.1,29.6,29.90,NNW,347,3.0,-999.0,94,0.00,,,0.00,WeatherSnoop3.0,2013-03-22 14:35:00,
2013-03-22 09:40:00,31.2,29.7,29.90,NE,39,3.0,-999.0,94,0.00,,,0.00,WeatherSnoop3.0,2013-03-22 14:40:00,
2013-03-22 09:45:00,31.2,29.7,29.90,NNE,32,1.0,-999.0,94,0.00,,,0.00,WeatherSnoop3.0,2013-03-22 14:45:00,
2013-03-22 09:50:00,31.3,29.8,29.90,North,357,0.0,-999.0,94,0.00,,,0.00,WeatherSnoop3.0,2013-03-22 14:50:00,
2013-03-22 09:55:00,31.3,29.8,29.90,NNE,15,2.0,-999.0,94,0.00,,,0.00,WeatherSnoop3.0,2013-03-22 14:55:00,
2013-03-22 10:00:00,31.5,30.0,29.89,NNE,26,5.0,-999.0,94,0.00,,,0.00,WeatherSnoop3.0,2013-03-22 15:00:00,
2013-03-22 10:05:00,31.6,30.1,29.89,North,4,2.0,-999.0,94,0.00,,,0.00,WeatherSnoop3.0,2013-03-22 15:05:00,
2013-03-22 10:10:00,31.8,30.3,29.90,WNW,287,1.0,-999.0,94,0.00,,,0.00,WeatherSnoop3.0,2013-03-22 15:10:00,
2013-03-22 10:15:00,31.9,30.1,29.90,NNE,26,1.0,-999.0,93,0.00,,,0.00,WeatherSnoop3.0,2013-03-22 15:15:00,
2013-03-22 10:20:00,31.9,30.1,29.90,West,270,1.0,-999.0,93,0.00,,,0.00,WeatherSnoop3.0,2013-03-22 15:20:00,
2013-03-22 10:25:00,32.2,30.7,29.90,North,4,1.0,-999.0,94,0.00,,,0.00,WeatherSnoop3.0,2013-03-22 15:25:00,
2013-03-22 10:30:00,32.4,30.6,29.91,NE,39,0.0,-999.0,93,0.00,,,0.00,WeatherSnoop3.0,2013-03-22 15:30:00,
2013-03-22 10:35:00,32.7,30.9,29.91,NNE,22,2.0,-999.0,93,0.00,,,0.00,WeatherSnoop3.0,2013-03-22 15:35:00,
2013-03-22 10:40:00,32.7,30.6,29.91,North,9,4.0,-999.0,92,0.00,,,0.00,WeatherSnoop3.0,2013-03-22 15:40:00,
2013-03-22 10:45:00,32.8,30.5,29.91,North,353,1.0,-999.0,91,0.00,,,0.00,WeatherSnoop3.0,2013-03-22 15:45:00,
2013-03-22 10:50:00,32.9,30.6,29.91,NW,304,2.0,-999.0,91,0.00,,,0.00,WeatherSnoop3.0,2013-03-22 15:50:00,
2013-03-22 10:55:00,33.2,30.9,29.90,North,357,2.0,-999.0,91,0.00,,,0.00,WeatherSnoop3.0,2013-03-22 15:55:00,
2013-03-22 11:00:00,33.5,30.9,29.90,NNW,332,2.0,-999.0,90,0.00,,,0.00,WeatherSnoop3.0,2013-03-22 16:00:00,
2013-03-22 11:06:00,34.2,31.3,29.89,NE,41,4.0,-999.0,89,0.00,,,0.00,WeatherSnoop3.0,2013-03-22 16:06:00,
2013-03-22 11:11:00,35.0,31.8,29.89,NW,316,3.0,-999.0,88,0.00,,,0.00,WeatherSnoop3.0,2013-03-22 16:11:00,
2013-03-22 11:17:00,35.3,31.5,29.89,NE,34,3.0,-999.0,86,0.00,,,0.00,WeatherSnoop3.0,2013-03-22 16:17:00,
2013-03-22 11:22:00,35.4,31.6,29.89,ENE,65,4.0,-999.0,86,0.00,,,0.00,WeatherSnoop3.0,2013-03-22 16:22:00,
2013-03-22 11:27:00,35.5,31.4,29.89,NNW,340,5.0,-999.0,85,0.00,,,0.00,WeatherSnoop3.0,2013-03-22 16:27:00,
2013-03-22 11:32:00,35.5,31.4,29.89,North,353,5.0,-999.0,85,0.00,,,0.00,WeatherSnoop3.0,2013-03-22 16:32:00,
2013-03-22 11:37:00,35.4,31.3,29.88,ENE,63,6.0,-999.0,85,0.00,,,0.00,WeatherSnoop3.0,2013-03-22 16:37:00,
2013-03-22 11:43:00,36.1,31.7,29.89,NNW,342,3.0,-999.0,84,0.00,,,0.00,WeatherSnoop3.0,2013-03-22 16:43:00,
2013-03-22 11:48:00,36.2,31.5,29.89,NNE,26,3.0,-999.0,83,0.00,,,0.00,WeatherSnoop3.0,2013-03-22 16:48:00,
2013-03-22 11:53:00,36.5,31.8,29.89,West,274,1.0,-999.0,83,0.00,,,0.00,WeatherSnoop3.0,2013-03-22 16:53:00,
2013-03-22 11:58:00,37.4,32.4,29.89,NE,44,3.0,-999.0,82,0.00,,,0.00,WeatherSnoop3.0,2013-03-22 16:58:00,
2013-03-22 12:03:00,37.7,32.4,29.90,NNE,18,2.0,-999.0,81,0.00,,,0.00,WeatherSnoop3.0,2013-03-22 17:03:00,
2013-03-22 12:08:00,37.9,32.3,29.89,NE,36,5.0,-999.0,80,0.00,,,0.00,WeatherSnoop3.0,2013-03-22 17:08:00,
2013-03-22 12:13:00,38.0,32.1,29.90,SW,231,2.0,-999.0,79,0.00,,,0.00,WeatherSnoop3.0,2013-03-22 17:13:00,
2013-03-22 12:18:00,38.3,32.1,29.90,NE,54,8.0,-999.0,78,0.00,,,0.00,WeatherSnoop3.0,2013-03-22 17:18:00,
2013-03-22 12:23:00,38.4,32.5,29.90,WNW,300,3.0,-999.0,79,0.00,,,0.00,WeatherSnoop3.0,2013-03-22 17:23:00,
2013-03-22 12:28:00,39.1,32.8,29.90,NE,36,2.0,-999.0,78,0.00,,,0.00,WeatherSnoop3.0,2013-03-22 17:28:00,
2013-03-22 12:33:00,39.4,32.8,29.90,ENE,58,3.0,-999.0,77,0.00,,,0.00,WeatherSnoop3.0,2013-03-22 17:33:00,
2013-03-22 12:38:00,39.8,32.9,29.89,North,1,1.0,-999.0,76,0.00,,,0.00,WeatherSnoop3.0,2013-03-22 17:38:00,
2013-03-22 12:43:00,39.5,32.2,29.90,NE,39,3.0,-999.0,75,0.00,,,0.00,WeatherSnoop3.0,2013-03-22 17:43:00,
2013-03-22 12:48:00,39.9,32.6,29.89,NW,322,3.0,-999.0,75,0.00,,,0.00,WeatherSnoop3.0,2013-03-22 17:48:00,
2013-03-22 12:53:00,40.4,32.8,29.89,NNE,17,0.0,-999.0,74,0.00,,,0.00,WeatherSnoop3.0,2013-03-22 17:53:00,
2013-03-22 12:58:00,40.4,32.8,29.89,ENE,61,2.0,-999.0,74,0.00,,,0.00,WeatherSnoop3.0,2013-03-22 17:58:00,
2013-03-22 13:03:00,40.4,32.8,29.89,ENE,63,6.0,-999.0,74,0.00,,,0.00,WeatherSnoop3.0,2013-03-22 18:03:00,
2013-03-22 13:08:00,40.6,33.6,29.89,NNW,342,1.0,-999.0,76,0.00,,,0.00,WeatherSnoop3.0,2013-03-22 18:08:00,
2013-03-22 13:13:00,41.4,33.7,29.89,NE,49,3.0,-999.0,74,0.00,,,0.00,WeatherSnoop3.0,2013-03-22 18:13:00,
2013-03-22 13:18:00,41.5,33.5,29.89,ENE,57,3.0,-999.0,73,0.00,,,0.00,WeatherSnoop3.0,2013-03-22 18:18:00,
2013-03-22 13:23:00,41.3,33.0,29.88,ENE,63,2.0,-999.0,72,0.00,,,0.00,WeatherSnoop3.0,2013-03-22 18:23:00,
2013-03-22 13:28:00,41.6,33.6,29.88,NNW,338,4.0,-999.0,73,0.00,,,0.00,WeatherSnoop3.0,2013-03-22 18:28:00,
2013-03-22 13:33:00,42.0,34.3,29.88,NNE,27,6.0,-999.0,74,0.00,,,0.00,WeatherSnoop3.0,2013-03-22 18:33:00,
2013-03-22 13:38:00,42.1,33.4,29.87,NE,39,5.0,-999.0,71,0.00,,,0.00,WeatherSnoop3.0,2013-03-22 18:38:00,
2013-03-22 13:43:00,42.3,34.3,29.87,NE,34,4.0,-999.0,73,0.00,,,0.00,WeatherSnoop3.0,2013-03-22 18:43:00,
2013-03-22 13:48:00,42.6,33.9,29.86,NNE,26,4.0,-999.0,71,0.00,,,0.00,WeatherSnoop3.0,2013-03-22 18:48:00,
2013-03-22 13:53:00,43.1,34.0,29.86,North,360,6.0,-999.0,70,0.00,,,0.00,WeatherSnoop3.0,2013-03-22 18:53:00,
2013-03-22 13:58:00,42.7,33.6,29.86,NNW,348,4.0,-999.0,70,0.00,,,0.00,WeatherSnoop3.0,2013-03-22 18:58:00,
2013-03-22 14:03:00,42.7,33.3,29.86,East,92,3.0,-999.0,69,0.00,,,0.00,WeatherSnoop3.0,2013-03-22 19:03:00,
2013-03-22 14:08:00,42.9,34.2,29.85,ESE,113,2.0,-999.0,71,0.00,,,0.00,WeatherSnoop3.0,2013-03-22 19:08:00,
2013-03-22 14:13:00,43.6,34.5,29.85,East,82,3.0,-999.0,70,0.00,,,0.00,WeatherSnoop3.0,2013-03-22 19:13:00,
2013-03-22 14:18:00,43.4,33.9,29.85,ENE,74,2.0,-999.0,69,0.00,,,0.00,WeatherSnoop3.0,2013-03-22 19:18:00,
2013-03-22 14:23:00,44.1,34.2,29.85,ENE,77,1.0,-999.0,68,0.00,,,0.00,WeatherSnoop3.0,2013-03-22 19:23:00,
2013-03-22 14:28:00,44.1,33.9,29.85,NNE,13,0.0,-999.0,67,0.00,,,0.00,WeatherSnoop3.0,2013-03-22 19:28:00,
2013-03-22 14:33:00,44.3,33.7,29.85,NNE,27,6.0,-999.0,66,0.00,,,0.00,WeatherSnoop3.0,2013-03-22 19:33:00,
2013-03-22 14:38:00,45.0,34.3,29.85,West,276,2.0,-999.0,66,0.00,,,0.00,WeatherSnoop3.0,2013-03-22 19:38:00,
2013-03-22 14:43:00,45.3,34.2,29.85,SSE,165,0.0,-999.0,65,0.00,,,0.00,WeatherSnoop3.0,2013-03-22 19:43:00,
2013-03-22 14:48:00,45.6,34.5,29.84,East,92,4.0,-999.0,65,0.00,,,0.00,WeatherSnoop3.0,2013-03-22 19:48:00,
2013-03-22 14:53:00,45.3,34.2,29.84,NW,309,0.0,-999.0,65,0.00,,,0.00,WeatherSnoop3.0,2013-03-22 19:53:00,
2013-03-22 14:58:00,45.4,34.3,29.84,ENE,65,1.0,-999.0,65,0.00,,,0.00,WeatherSnoop3.0,2013-03-22 19:58:00,
2013-03-22 15:03:00,45.6,34.1,29.84,East,84,1.0,-999.0,64,0.00,,,0.00,WeatherSnoop3.0,2013-03-22 20:03:00,
2013-03-22 15:08:00,45.6,34.5,29.84,North,5,3.0,-999.0,65,0.00,,,0.00,WeatherSnoop3.0,2013-03-22 20:08:00,
2013-03-22 15:13:00,45.6,34.1,29.83,NE,41,1.0,-999.0,64,0.00,,,0.00,WeatherSnoop3.0,2013-03-22 20:13:00,
2013-03-22 15:18:00,45.5,34.4,29.83,NE,35,6.0,-999.0,65,0.00,,,0.00,WeatherSnoop3.0,2013-03-22 20:18:00,
2013-03-22 15:23:00,45.8,34.3,29.83,NNE,17,3.0,-999.0,64,0.00,,,0.00,WeatherSnoop3.0,2013-03-22 20:23:00,
2013-03-22 15:28:00,45.7,33.8,29.83,ENE,60,1.0,-999.0,63,0.00,,,0.00,WeatherSnoop3.0,2013-03-22 20:28:00,
2013-03-22 15:33:00,46.0,34.5,29.83,NE,34,3.0,-999.0,64,0.00,,,0.00,WeatherSnoop3.0,2013-03-22 20:33:00,
2013-03-22 15:38:00,46.5,34.6,29.83,North,349,0.0,-999.0,63,0.00,,,0.00,WeatherSnoop3.0,2013-03-22 20:38:00,
2013-03-22 15:43:00,47.7,35.3,29.82,NE,46,4.0,-999.0,62,0.00,,,0.00,WeatherSnoop3.0,2013-03-22 20:43:00,
2013-03-22 15:48:00,47.4,34.6,29.83,ENE,73,3.0,-999.0,61,0.00,,,0.00,WeatherSnoop3.0,2013-03-22 20:48:00,
2013-03-22 15:53:00,46.8,34.5,29.83,East,101,1.0,-999.0,62,0.00,,,0.00,WeatherSnoop3.0,2013-03-22 20:53:00,
2013-03-22 15:58:00,46.5,34.2,29.83,NE,40,2.0,-999.0,62,0.00,,,0.00,WeatherSnoop3.0,2013-03-22 20:58:00,
2013-03-22 16:03:00,46.1,33.8,29.83,SW,233,0.0,-999.0,62,0.00,,,0.00,WeatherSnoop3.0,2013-03-22 21:03:00,
2013-03-22 16:08:00,47.3,34.5,29.83,NE,56,3.0,-999.0,61,0.00,,,0.00,WeatherSnoop3.0,2013-03-22 21:08:00,
2013-03-22 16:13:00,47.2,34.4,29.83,NNE,29,5.0,-999.0,61,0.00,,,0.00,WeatherSnoop3.0,2013-03-22 21:13:00,
2013-03-22 16:18:00,47.1,34.4,29.82,ENE,63,1.0,-999.0,61,0.00,,,0.00,WeatherSnoop3.0,2013-03-22 21:18:00,
2013-03-22 16:23:00,46.9,34.2,29.81,North,4,1.0,-999.0,61,0.00,,,0.00,WeatherSnoop3.0,2013-03-22 21:23:00,
2013-03-22 16:29:00,47.4,34.6,29.82,NE,48,2.0,-999.0,61,0.00,,,0.00,WeatherSnoop3.0,2013-03-22 21:29:00,
2013-03-22 16:34:00,47.3,34.5,29.81,NNW,347,7.0,-999.0,61,0.00,,,0.00,WeatherSnoop3.0,2013-03-22 21:34:00,
2013-03-22 16:39:00,47.4,34.2,29.81,NE,36,4.0,-999.0,60,0.00,,,0.00,WeatherSnoop3.0,2013-03-22 21:39:00,
2013-03-22 16:44:00,47.3,34.1,29.82,NNE,30,0.0,-999.0,60,0.00,,,0.00,WeatherSnoop3.0,2013-03-22 21:44:00,
2013-03-22 16:49:00,48.2,35.0,29.82,NE,36,8.0,-999.0,60,0.00,,,0.00,WeatherSnoop3.0,2013-03-22 21:49:00,
2013-03-22 16:54:00,48.0,34.8,29.82,NE,43,5.0,-999.0,60,0.00,,,0.00,WeatherSnoop3.0,2013-03-22 21:54:00,
2013-03-22 16:59:00,48.2,34.6,29.82,NNE,28,4.0,-999.0,59,0.00,,,0.00,WeatherSnoop3.0,2013-03-22 21:59:00,
2013-03-22 17:04:00,47.9,34.3,29.81,North,8,5.0,-999.0,59,0.00,,,0.00,WeatherSnoop3.0,2013-03-22 22:04:00,
2013-03-22 17:09:00,48.2,35.0,29.82,NE,39,1.0,-999.0,60,0.00,,,0.00,WeatherSnoop3.0,2013-03-22 22:09:00,
2013-03-22 17:14:00,48.5,35.3,29.82,NNE,20,3.0,-999.0,60,0.00,,,0.00,WeatherSnoop3.0,2013-03-22 22:14:00,
2013-03-22 17:19:00,48.7,35.4,29.82,ENE,62,2.0,-999.0,60,0.00,,,0.00,WeatherSnoop3.0,2013-03-22 22:19:00,
2013-03-22 17:24:00,48.8,35.1,29.82,ENE,63,3.0,-999.0,59,0.00,,,0.00,WeatherSnoop3.0,2013-03-22 22:24:00,
2013-03-22 17:29:00,48.2,34.6,29.83,ENE,61,2.0,-999.0,59,0.00,,,0.00,WeatherSnoop3.0,2013-03-22 22:29:00,
2013-03-22 17:34:00,47.8,34.6,29.82,ENE,62,6.0,-999.0,60,0.00,,,0.00,WeatherSnoop3.0,2013-03-22 22:34:00,
2013-03-22 17:39:00,48.1,34.9,29.82,ENE,58,3.0,-999.0,60,0.00,,,0.00,WeatherSnoop3.0,2013-03-22 22:39:00,
2013-03-22 17:44:00,48.4,34.7,29.82,ENE,65,4.0,-999.0,59,0.00,,,0.00,WeatherSnoop3.0,2013-03-22 22:44:00,
2013-03-22 17:49:00,48.1,34.5,29.82,ENE,61,6.0,-999.0,59,0.00,,,0.00,WeatherSnoop3.0,2013-03-22 22:49:00,
2013-03-22 17:54:00,47.9,34.3,29.82,East,84,2.0,-999.0,59,0.00,,,0.00,WeatherSnoop3.0,2013-03-22 22:54:00,
2013-03-22 17:59:00,48.3,35.1,29.82,NNE,19,5.0,-999.0,60,0.00,,,0.00,WeatherSnoop3.0,2013-03-22 22:59:00,
2013-03-22 18:04:00,48.3,35.1,29.82,ENE,58,6.0,-999.0,60,0.00,,,0.00,WeatherSnoop3.0,2013-03-22 23:04:00,
2013-03-22 18:09:00,48.2,35.0,29.82,NE,53,3.0,-999.0,60,0.00,,,0.00,WeatherSnoop3.0,2013-03-22 23:09:00,
2013-03-22 18:14:00,47.7,34.5,29.82,ENE,77,2.0,-999.0,60,0.00,,,0.00,WeatherSnoop3.0,2013-03-22 23:14:00,
2013-03-22 18:19:00,47.7,34.5,29.82,ENE,68,5.0,-999.0,60,0.00,,,0.00,WeatherSnoop3.0,2013-03-22 23:19:00,
2013-03-22 18:24:00,47.9,34.7,29.82,ENE,59,4.0,-999.0,60,0.00,,,0.00,WeatherSnoop3.0,2013-03-22 23:24:00,
2013-03-22 18:29:00,47.8,34.6,29.82,NE,46,3.0,-999.0,60,0.00,,,0.00,WeatherSnoop3.0,2013-03-22 23:29:00,
2013-03-22 18:34:00,47.5,34.7,29.82,North,355,4.0,-999.0,61,0.00,,,0.00,WeatherSnoop3.0,2013-03-22 23:34:00,
2013-03-22 18:39:00,47.3,34.1,29.82,NNE,20,7.0,-999.0,60,0.00,,,0.00,WeatherSnoop3.0,2013-03-22 23:39:00,
2013-03-22 18:44:00,47.0,34.3,29.82,ENE,60,6.0,-999.0,61,0.00,,,0.00,WeatherSnoop3.0,2013-03-22 23:44:00,
2013-03-22 18:49:00,46.7,34.0,29.82,NE,47,5.0,-999.0,61,0.00,,,0.00,WeatherSnoop3.0,2013-03-22 23:49:00,
2013-03-22 18:54:00,46.4,34.1,29.82,NE,46,3.0,-999.0,62,0.00,,,0.00,WeatherSnoop3.0,2013-03-22 23:54:00,
2013-03-22 18:59:00,46.3,34.4,29.82,NE,36,2.0,-999.0,63,0.00,,,0.00,WeatherSnoop3.0,2013-03-22 23:59:00,
2013-03-22 19:04:00,45.9,34.0,29.83,NE,36,4.0,-999.0,63,0.00,,,0.00,WeatherSnoop3.0,2013-03-23 00:04:00,
2013-03-22 19:09:00,45.6,34.1,29.83,NNE,26,2.0,-999.0,64,0.00,,,0.00,WeatherSnoop3.0,2013-03-23 00:09:00,
2013-03-22 19:14:00,45.3,34.2,29.83,East,84,1.0,-999.0,65,0.00,,,0.00,WeatherSnoop3.0,2013-03-23 00:14:00,
2013-03-22 19:19:00,45.0,34.0,29.83,NE,43,2.0,-999.0,65,0.00,,,0.00,WeatherSnoop3.0,2013-03-23 00:19:00,
2013-03-22 19:24:00,44.7,33.7,29.83,NE,34,5.0,-999.0,65,0.00,,,0.00,WeatherSnoop3.0,2013-03-23 00:24:00,
2013-03-22 19:29:00,44.3,33.7,29.83,ENE,65,4.0,-999.0,66,0.00,,,0.00,WeatherSnoop3.0,2013-03-23 00:29:00,
2013-03-22 19:34:00,44.0,33.8,29.83,ENE,65,3.0,-999.0,67,0.00,,,0.00,WeatherSnoop3.0,2013-03-23 00:34:00,
2013-03-22 19:39:00,43.6,33.4,29.83,ENE,59,1.0,-999.0,67,0.00,,,0.00,WeatherSnoop3.0,2013-03-23 00:39:00,
2013-03-22 19:44:00,43.1,33.3,29.83,ENE,70,1.0,-999.0,68,0.00,,,0.00,WeatherSnoop3.0,2013-03-23 00:44:00,
2013-03-22 19:49:00,42.6,33.2,29.83,ENE,68,5.0,-999.0,69,0.00,,,0.00,WeatherSnoop3.0,2013-03-23 00:49:00,
2013-03-22 19:54:00,42.2,33.1,29.83,ENE,57,4.0,-999.0,70,0.00,,,0.00,WeatherSnoop3.0,2013-03-23 00:54:00,
2013-03-22 19:59:00,41.9,32.8,29.83,ENE,63,1.0,-999.0,70,0.00,,,0.00,WeatherSnoop3.0,2013-03-23 00:59:00,
2013-03-22 20:04:00,41.5,32.8,29.83,NE,49,5.0,-999.0,71,0.00,,,0.00,WeatherSnoop3.0,2013-03-23 01:04:00,
2013-03-22 20:09:00,41.2,32.5,29.84,ENE,58,4.0,-999.0,71,0.00,,,0.00,WeatherSnoop3.0,2013-03-23 01:09:00,
2013-03-22 20:14:00,41.1,32.8,29.84,NE,52,3.0,-999.0,72,0.00,,,0.00,WeatherSnoop3.0,2013-03-23 01:14:00,
2013-03-22 20:19:00,40.9,32.6,29.84,ENE,76,3.0,-999.0,72,0.00,,,0.00,WeatherSnoop3.0,2013-03-23 01:19:00,
2013-03-22 20:24:00,40.6,32.6,29.84,ENE,72,2.0,-999.0,73,0.00,,,0.00,WeatherSnoop3.0,2013-03-23 01:24:00,
2013-03-22 20:29:00,40.4,32.4,29.85,NE,41,7.0,-999.0,73,0.00,,,0.00,WeatherSnoop3.0,2013-03-23 01:29:00,
2013-03-22 20:34:00,40.1,32.2,29.85,ENE,63,3.0,-999.0,73,0.00,,,0.00,WeatherSnoop3.0,2013-03-23 01:34:00,
2013-03-22 20:39:00,39.8,32.2,29.85,ENE,70,2.0,-999.0,74,0.00,,,0.00,WeatherSnoop3.0,2013-03-23 01:39:00,
2013-03-22 20:44:00,39.6,32.3,29.85,East,98,3.0,-999.0,75,0.00,,,0.00,WeatherSnoop3.0,2013-03-23 01:44:00,
2013-03-22 20:49:00,39.3,32.1,29.85,East,93,2.0,-999.0,75,0.00,,,0.00,WeatherSnoop3.0,2013-03-23 01:49:00,
2013-03-22 20:54:00,39.0,32.1,29.86,NNE,32,3.0,-999.0,76,0.00,,,0.00,WeatherSnoop3.0,2013-03-23 01:54:00,
2013-03-22 20:59:00,38.7,31.8,29.86,ENE,61,2.0,-999.0,76,0.00,,,0.00,WeatherSnoop3.0,2013-03-23 01:59:00,
2013-03-22 21:04:00,38.5,31.9,29.86,ENE,61,1.0,-999.0,77,0.00,,,0.00,WeatherSnoop3.0,2013-03-23 02:04:00,
2013-03-22 21:09:00,38.2,31.6,29.86,East,84,1.0,-999.0,77,0.00,,,0.00,WeatherSnoop3.0,2013-03-23 02:09:00,
2013-03-22 21:14:00,37.8,31.6,29.86,ENE,64,1.0,-999.0,78,0.00,,,0.00,WeatherSnoop3.0,2013-03-23 02:14:00,
2013-03-22 21:19:00,37.5,31.6,29.86,East,81,2.0,-999.0,79,0.00,,,0.00,WeatherSnoop3.0,2013-03-23 02:19:00,
2013-03-22 21:24:00,37.2,31.3,29.86,NE,49,2.0,-999.0,79,0.00,,,0.00,WeatherSnoop3.0,2013-03-23 02:24:00,
2013-03-22 21:29:00,37.1,31.5,29.86,East,89,1.0,-999.0,80,0.00,,,0.00,WeatherSnoop3.0,2013-03-23 02:29:00,
2013-03-22 21:34:00,37.0,31.4,29.86,NE,50,3.0,-999.0,80,0.00,,,0.00,WeatherSnoop3.0,2013-03-23 02:34:00,
2013-03-22 21:39:00,36.9,31.3,29.86,NNE,32,4.0,-999.0,80,0.00,,,0.00,WeatherSnoop3.0,2013-03-23 02:39:00,
2013-03-22 21:44:00,36.8,31.2,29.87,East,79,1.0,-999.0,80,0.00,,,0.00,WeatherSnoop3.0,2013-03-23 02:44:00,
2013-03-22 21:49:00,36.7,31.4,29.87,ENE,77,1.0,-999.0,81,0.00,,,0.00,WeatherSnoop3.0,2013-03-23 02:49:00,
2013-03-22 21:54:00,36.8,31.5,29.87,East,82,2.0,-999.0,81,0.00,,,0.00,WeatherSnoop3.0,2013-03-23 02:54:00,
2013-03-22 21:59:00,36.7,31.4,29.87,ENE,60,2.0,-999.0,81,0.00,,,0.00,WeatherSnoop3.0,2013-03-23 02:59:00,
2013-03-22 22:04:00,36.5,31.2,29.86,East,83,2.0,-999.0,81,0.00,,,0.00,WeatherSnoop3.0,2013-03-23 03:04:00,
2013-03-22 22:09:00,36.3,31.3,29.86,East,83,4.0,-999.0,82,0.00,,,0.00,WeatherSnoop3.0,2013-03-23 03:09:00,
2013-03-22 22:14:00,36.1,31.1,29.86,ENE,61,0.0,-999.0,82,0.00,,,0.00,WeatherSnoop3.0,2013-03-23 03:14:00,
2013-03-22 22:19:00,36.2,31.5,29.86,East,97,3.0,-999.0,83,0.00,,,0.00,WeatherSnoop3.0,2013-03-23 03:19:00,
2013-03-22 22:24:00,36.4,31.7,29.86,ENE,70,1.0,-999.0,83,0.00,,,0.00,WeatherSnoop3.0,2013-03-23 03:24:00,
2013-03-22 22:29:00,36.1,31.4,29.86,ENE,63,1.0,-999.0,83,0.00,,,0.00,WeatherSnoop3.0,2013-03-23 03:29:00,
2013-03-22 22:34:00,35.9,31.5,29.86,NE,54,1.0,-999.0,84,0.00,,,0.00,WeatherSnoop3.0,2013-03-23 03:34:00,
2013-03-22 22:39:00,35.6,31.3,29.86,East,86,1.0,-999.0,84,0.00,,,0.00,WeatherSnoop3.0,2013-03-23 03:39:00,
2013-03-22 22:44:00,35.5,31.2,29.87,ENE,68,1.0,-999.0,84,0.00,,,0.00,WeatherSnoop3.0,2013-03-23 03:44:00,
2013-03-22 22:49:00,35.3,31.2,29.87,ENE,70,2.0,-999.0,85,0.00,,,0.00,WeatherSnoop3.0,2013-03-23 03:49:00,
2013-03-22 22:54:00,35.2,31.2,29.87,ENE,77,1.0,-999.0,85,0.00,,,0.00,WeatherSnoop3.0,2013-03-23 03:54:00,
2013-03-22 22:59:00,35.1,31.1,29.88,ENE,72,1.0,-999.0,85,0.00,,,0.00,WeatherSnoop3.0,2013-03-23 03:59:00,
2013-03-22 23:00:00,35.1,31.1,29.88,East,89,3.0,-999.0,85,0.00,,,0.00,WeatherSnoop3.0,2013-03-23 04:00:00,
2013-03-22 23:02:00,35.1,31.1,29.88,ENE,77,2.0,-999.0,85,0.00,,,0.00,WeatherSnoop3.0,2013-03-23 04:02:00,
2013-03-22 23:03:00,35.1,31.1,29.88,ENE,63,2.0,-999.0,85,0.00,,,0.00,WeatherSnoop3.0,2013-03-23 04:03:00,
2013-03-22 23:08:00,35.0,31.0,29.88,ENE,76,1.0,-999.0,85,0.00,,,0.00,WeatherSnoop3.0,2013-03-23 04:08:00,
2013-03-22 23:14:00,34.9,30.9,29.88,ENE,60,5.0,-999.0,85,0.00,,,0.00,WeatherSnoop3.0,2013-03-23 04:14:00,
2013-03-22 23:16:00,34.9,30.9,29.88,NE,46,3.0,-999.0,85,0.00,,,0.00,WeatherSnoop3.0,2013-03-23 04:16:00,
2013-03-22 23:21:00,34.8,30.8,29.89,NE,49,4.0,-999.0,85,0.00,,,0.00,WeatherSnoop3.0,2013-03-23 04:21:00,
2013-03-22 23:27:00,34.7,30.9,29.89,East,79,1.0,-999.0,86,0.00,,,0.00,WeatherSnoop3.0,2013-03-23 04:27:00,
2013-03-22 23:32:00,34.7,30.9,29.89,ENE,68,3.0,-999.0,86,0.00,,,0.00,WeatherSnoop3.0,2013-03-23 04:32:00,
2013-03-22 23:37:00,34.5,30.8,29.88,East,81,2.0,-999.0,86,0.00,,,0.00,WeatherSnoop3.0,2013-03-23 04:37:00,
2013-03-22 23:42:00,34.4,30.7,29.89,ENE,72,2.0,-999.0,86,0.00,,,0.00,WeatherSnoop3.0,2013-03-23 04:42:00,
2013-03-22 23:47:00,34.3,30.6,29.89,NE,49,4.0,-999.0,86,0.00,,,0.00,WeatherSnoop3.0,2013-03-23 04:47:00,
2013-03-22 23:52:00,34.1,30.4,29.90,ENE,63,2.0,-999.0,86,0.00,,,0.00,WeatherSnoop3.0,2013-03-23 04:52:00,
2013-03-22 23:57:00,33.9,30.2,29.90,NE,47,2.0,-999.0,86,0.00,,,0.00,WeatherSnoop3.0,2013-03-23 04:57:00,